Wind_Speed
37 33 28 20 19 17 13 6 6 6 3 5 4 3 6 6 7 11 12 12 11 20 24 25 25 27 30 32 35 36 36 32 27
42 36 38 27 26 22 24 17 13 11 9 7 6 5 5 5 2 4 7 9 9 13 9 14 17 21 22 24 24 27 32 32 30
58 49 42 37 33 27 28 25 19 17 14 13 12 11 11 8 4 2 2 3 5 8 8 9 11 12 13 14 17 21 24 27 32
59 54 43 43 40 33 32 25 29 26 20 20 16 15 15 13 10 6 3 4 6 8 7 8 10 13 11 9 8 10 13 19 22
54 55 51 43 38 38 34 34 36 29 25 27 23 22 21 20 17 13 9 7 5 8 9 11 10 8 9 8 7 7 8 12 14
48 48 48 44 44 42 38 39 35 32 31 30 30 27 27 25 20 16 13 11 9 11 12 12 13 14 12 12 9 8 6 9 12
54 53 52 46 45 42 44 44 34 35 37 41 32 33 37 26 22 21 16 15 15 13 14 13 15 15 14 14 11 12 10 6 6
58 58 57 50 53 50 46 40 37 43 47 45 38 21 31 25 25 25 21 19 17 19 19 17 14 16 14 13 15 16 16 16 10
58 60 62 57 57 56 55 54 55 43 40 35 52 48 42 40 36 24 27 27 22 25 23 20 22 24 25 19 18 21 23 20 20
53 66 76 65 62 50 56 64 58 48 44 41 46 45 44 44 43 44 42 37 35 29 29 29 33 31 33 29 24 20 24 25 25
69 36 57 71 58 51 47 47 45 58 53 57 56 53 56 52 51 53 52 46 42 39 40 33 34 44 40 30 30 31 33 32 31
90 82 60 61 75 77 74 77 80 76 68 71 76 74 74 69 63 66 64 60 54 54 47 47 48 50 50 48 50 49 49 47 42
95 96 97 91 77 75 69 76 79 81 77 78 81 83 78 78 74 71 69 67 60 62 60 58 59 59 58 63 59 56 58 55 54
106 101 103 104 94 94 91 86 88 85 79 75 76 77 82 80 70 72 70 71 66 66 68 68 69 63 63 65 65 64 66 61 62
113 112 111 101 98 98 93 95 94 92 88 83 87 83 83 78 70 69 72 77 78 75 78 76 75 72 74 71 70 72 70 70 65
109 114 118 121 116 108 107 103 94 96 94 91 95 91 91 87 86 83 83 81 79 82 81 82 81 82 81 82 78 74 75 73 75
114 114 112 115 119 116 112 115 111 102 104 98 99 99 94 97 92 92 90 95 92 88 87 86 91 88 84 88 85 81 83 83 81
113 113 113 119 119 118 119 116 109 100 111 115 110 108 104 98 94 98 93 91 90 91 94 90 90 92 90 92 95 92 87 91 91
104 110 115 114 117 122 124 124 120 115 109 102 114 127 116 116 110 107 104 111 103 102 96 96 98 95 105 99 98 97 92 86 87
105 108 103 106 115 120 123 123 123 126 127 122 115 108 114 119 119 125 123 120 113 114 118 113 107 108 105 97 97 91 91 91 95
Wind_Direction
207 215 221 233 259 255 253 242 236 218 229 170 137 119 126 101 60 59 62 81 69 54 55 64 61 67 67 61 63 63 58 57 62
218 212 213 241 251 242 251 255 280 250 227 226 196 213 220 192 120 51 38 45 41 39 36 40 47 62 64 61 48 57 64 62 59
222 224 228 239 248 245 247 257 269 269 251 225 230 208 224 230 232 234 314 344 4 15 15 52 35 35 36 38 66 78 67 72 71
220 225 234 236 240 235 251 244 266 270 266 236 226 229 226 225 242 247 266 321 314 318 330 335 2 13 1 15 36 80 85 73 74
227 234 243 246 235 237 235 259 260 258 267 251 228 230 228 225 223 233 247 248 265 280 304 316 327 339 358 6 349 30 69 65 53
221 223 235 237 237 239 246 249 256 256 256 254 243 241 237 229 230 230 235 262 264 270 280 293 302 310 314 309 321 346 341 14 22
217 225 226 233 233 236 240 242 245 264 246 256 238 252 251 230 233 231 240 256 271 276 269 281 286 288 296 306 298 295 317 306 353
221 224 225 228 237 241 241 235 214 250 255 245 228 245 224 224 243 242 243 249 256 262 274 280 279 281 275 272 283 273 262 279 285
225 229 237 240 242 241 245 232 231 234 258 236 227 234 226 234 245 246 247 247 245 254 267 263 270 270 276 266 269 277 273 275 277
231 242 240 242 240 229 248 235 235 229 240 230 222 218 233 242 250 256 253 251 242 244 253 260 274 264 268 261 261 261 264 268 269
212 205 225 230 231 236 237 222 234 228 240 226 217 224 246 251 252 256 256 248 244 234 241 252 249 258 259 257 264 270 271 267 267
217 226 222 223 228 235 236 238 239 243 241 238 241 252 254 252 251 254 254 252 249 249 244 238 245 243 258 262 268 270 273 274 271
224 228 231 230 223 222 227 234 239 241 240 247 248 246 244 245 248 246 250 249 255 250 251 249 250 253 258 263 263 266 269 272 271
222 227 230 232 230 223 229 232 236 238 243 241 242 241 242 243 245 245 247 248 251 254 252 250 254 256 253 256 259 271 272 270 267
227 224 226 226 228 233 232 234 231 233 238 238 241 242 242 245 249 249 247 246 249 254 253 252 255 255 258 262 265 271 274 270 268
228 229 228 230 232 234 238 241 238 229 230 234 238 240 245 246 249 252 251 246 247 252 254 255 254 259 259 262 263 269 273 271 271
231 230 230 234 233 232 233 236 240 240 231 234 236 237 243 247 249 251 252 251 249 251 251 254 255 254 255 257 258 264 270 271 271
229 230 233 233 233 233 232 235 232 238 235 234 236 237 239 241 244 247 247 245 252 250 249 252 252 254 257 257 259 259 262 267 265
228 230 232 235 235 235 233 235 236 234 236 238 240 241 240 241 241 239 247 242 249 252 253 253 254 256 257 259 258 262 262 258 259
226 228 232 235 237 239 237 235 237 238 238 242 243 244 243 244 246 249 252 255 258 257 259 251 254 254 262 256 255 262 263 261 266
Height
10994 11000 11008 11012 11015 11020 11024 11027 11030 11030 11031 11032 11032 11031 11030 11030 11029 11029 11028 11028 11027 11028 11030 11028 11024 11021 11018 11017 11014 11011 11008 11002 10998
10986 10992 10998 11005 11011 11015 11021 11024 11027 11029 11029 11031 11033 11032 11032 11031 11031 11031 11031 11030 11030 11031 11032 11032 11029 11025 11023 11021 11018 11017 11015 11010 11007
10980 10984 10992 11001 11005 11009 11014 11021 11025 11026 11028 11028 11029 11030 11031 11031 11031 11032 11032 11032 11032 11033 11033 11033 11033 11030 11028 11027 11026 11025 11026 11023 11019
10972 10978 10983 10994 11001 11005 11009 11017 11020 11022 11023 11025 11028 11029 11032 11031 11031 11031 11033 11034 11033 11034 11034 11033 11033 11034 11034 11033 11033 11033 11034 11032 11027
10965 10969 10977 10986 10995 10999 11005 11010 11012 11019 11019 11021 11022 11024 11028 11030 11029 11030 11030 11032 11033 11033 11032 11032 11032 11034 11036 11036 11037 11036 11036 11035 11031
10952 10959 10969 10978 10987 10993 11000 11004 11009 11015 11015 11016 11016 11020 11023 11025 11026 11026 11027 11028 11029 11029 11028 11028 11029 11031 11033 11034 11036 11037 11037 11035 11033
10941 10948 10964 10973 10979 10988 10993 10998 11011 11004 11010 11010 11010 11013 11015 11019 11021 11021 11021 11023 11025 11026 11027 11026 11026 11026 11029 11031 11033 11034 11035 11032 11030
10939 10946 10958 10966 10968 10977 10985 10993 10994 11002 10998 10999 11002 11006 11007 11012 11014 11015 11016 11019 11022 11022 11024 11025 11025 11025 11026 11029 11030 11030 11030 11029 11026
10935 10945 10949 10957 10964 10966 10972 10980 10981 10987 10986 10985 10991 10998 11000 11002 11005 11006 11009 11013 11016 11017 11020 11022 11022 11022 11024 11024 11024 11026 11026 11025 11025
10937 10931 10937 10941 10949 10956 10956 10959 10968 10972 10978 10979 10980 10983 10989 10992 10995 10997 11001 11005 11009 11013 11013 11015 11013 11012 11016 11017 11017 11020 11020 11020 11020
10913 10909 10919 10926 10935 10939 10946 10953 10952 10957 10966 10969 10968 10971 10977 10981 10984 10986 10989 10995 10999 11004 11006 11010 11009 11005 11007 11011 11011 11014 11014 11014 11014
10890 10889 10898 10906 10915 10924 10933 10940 10936 10943 10949 10954 10957 10960 10963 10968 10972 10975 10976 10979 10986 10990 10995 10999 10998 11000 10998 11000 11000 11003 11003 11003 11005
10867 10873 10878 10888 10897 10905 10910 10912 10915 10922 10930 10933 10936 10941 10947 10951 10958 10960 10962 10965 10970 10974 10978 10984 10987 10988 10988 10989 10989 10991 10991 10991 10992
10845 10850 10859 10864 10870 10881 10887 10894 10896 10903 10909 10912 10915 10921 10923 10930 10937 10943 10946 10950 10954 10959 10962 10966 10969 10972 10974 10975 10975 10976 10975 10977 10976
10818 10825 10830 10836 10846 10857 10864 10870 10876 10884 10887 10892 10893 10897 10902 10910 10916 10923 10929 10934 10937 10939 10944 10948 10952 10954 10957 10959 10961 10960 10960 10961 10962
10791 10798 10808 10814 10826 10834 10841 10845 10853 10862 10867 10875 10876 10882 10883 10889 10897 10905 10911 10915 10918 10921 10927 10930 10934 10935 10939 10940 10941 10941 10940 10942 10943
10763 10772 10783 10787 10799 10806 10813 10819 10831 10841 10847 10854 10860 10864 10868 10873 10875 10880 10884 10888 10896 10900 10908 10910 10909 10910 10917 10921 10922 10921 10921 10924 10926
10740 10750 10754 10759 10769 10779 10790 10798 10809 10819 10824 10830 10835 10843 10848 10852 10857 10862 10863 10865 10869 10874 10882 10885 10887 10890 10893 10900 10899 10901 10902 10904 10904
10717 10723 10731 10736 10744 10751 10765 10773 10786 10797 10802 10808 10814 10819 10824 10830 10834 10837 10840 10844 10849 10851 10856 10861 10861 10869 10867 10873 10876 10877 10878 10878 10883
10698 10704 10709 10715 10725 10733 10740 10752 10760 10769 10776 10782 10788 10792 10800 10805 10808 10811 10817 10823 10827 10830 10829 10835 10836 10843 10847 10849 10848 10850 10852 10850 10855